This is the latest recevied weather packets stored in our database for station/object Reichnbch. If no packets are shown the sender has not sent any weather packets the latest 1 day(s).
| Time | Temp. | Humidity | Pressure | Rain* | Wind** | Luminosity | Snow |
|---|---|---|---|---|---|---|---|
| 1777986130 | 15° C | 82% | 1009.2 hPa | 0.76 mm | 4.02 m/s, 252° | - | - |
| 1777984330 | 18.89° C | 70% | 1008.1 hPa | 0 mm | 0.45 m/s, 323° | - | - |
| 1777982530 | 19.44° C | 67% | 1008.1 hPa | 0 mm | 1.34 m/s, 329° | - | - |
| 1777980730 | 19.44° C | 72% | 1008 hPa | 0 mm | 0.89 m/s, 309° | - | - |
| 1777978931 | 19.44° C | 65% | 1008.2 hPa | 0 mm | 2.24 m/s, 338° | - | - |
| 1777977131 | 19.44° C | 68% | 1008.4 hPa | 0 mm | 1.34 m/s, 254° | - | - |
| 1777975332 | 20.56° C | 65% | 1008.6 hPa | 0 mm | 2.24 m/s, 205° | - | - |
| 1777973532 | 19.44° C | 72% | 1008.8 hPa | 0 mm | 1.34 m/s, 320° | - | - |
| 1777971732 | 17.78° C | 76% | 1009.2 hPa | 0 mm | 1.79 m/s, 71° | - | - |
| 1777969931 | 16.11° C | 76% | 1009.5 hPa | 0 mm | 1.79 m/s, 207° | - | - |
| 1777968131 | 15.56° C | 79% | 1009.8 hPa | 0 mm | 1.34 m/s, 244° | - | - |
| 1777966330 | 15° C | 80% | 1009.9 hPa | 0 mm | 0 m/s | - | - |
| 1777964532 | 13.89° C | 82% | 1010.2 hPa | 0 mm | 0 m/s | - | - |
| 1777962731 | 13.33° C | 83% | 1010.3 hPa | 0 mm | 0 m/s | - | - |
| 1777960932 | 12.22° C | 83% | 1010.4 hPa | 0 mm | 0 m/s | - | - |
| 1777959131 | 11.67° C | 83% | 1010.4 hPa | 0 mm | 0 m/s | - | - |
| 1777957331 | 10.56° C | 83% | 1010.7 hPa | 0 mm | 0 m/s | - | - |
| 1777955531 | 10.56° C | 83% | 1010.7 hPa | 0 mm | 0 m/s | - | - |
| 1777953731 | 10.56° C | 84% | 1010.6 hPa | 0 mm | 0 m/s | - | - |
| 1777951931 | 10.56° C | 84% | 1010.7 hPa | 0 mm | 0 m/s | - | - |
| 1777950133 | 11.11° C | 84% | 1011.1 hPa | 0 mm | 0 m/s | - | - |
| 1777948331 | 11.67° C | 83% | 1011.3 hPa | 0 mm | 0 m/s | - | - |
| 1777946531 | 12.78° C | 82% | 1011.6 hPa | 0 mm | 0 m/s | - | - |
* Rain since midnight (hover to see other rain measurements)
** Current wind speed in m/s (hover to see current wind gust speed)